カタログに戻る

DELTA 1 DEB

運用中SSO
NORAD 42577·DEBRIS·🇺🇸 United States

打ち上げ Nov 6, 1973 から Vandenberg Space Force Base

Loading…

次のパス (今後24時間)

TLE

経年Source: Space-Track

元期: Sep 4, 2026, 23:54 UTC

1 42577U 73086HR  26247.99598590  .00000256  00000-0  14474-2 0  9999
2 42577 101.2354 167.6322 0079759  74.4147 286.5724 12.72297107 52452

AllMySatでDELTA 1 DEBをリアルタイム追跡

Download on the App Store